Location: *
(2.7500°S, 66.6833°W)
Time: 03:00:15
(UTC+00:00)

DELTA 2 R/B (1) - Pass Details

Date: 24 May 2024
Orbit: 789 x 801 km, 39.6° (Epoch: 23 June)

Event Time Altitude Azimuth Distance (km) Brightness Sun altitude
Rises 22:50:38 0° 226° (SW) 3,299 7.2 -7.3°
Reaches altitude 10° 22:53:07 10° 225° (SW) 2,368 6.4 -7.8°
Maximum altitude 22:58:44 82° 138° (SE) 808 3.6 -9.2°
Drops below altitude 10° 23:04:19 10° 51° (NE) 2,360 5.7 -10.5°
Sets 23:06:47 0° 50° (NE) 3,287 6.5 -11.0°
